Location: Namasale
(1.5000°N, 32.6167°E)
Time: 23:00:16
(UTC+00:00)

Vanguard 3 - Pass Details

Date: 25 April 2021
Orbit: 507 x 3262 km, 33.4° (Epoch: 17 May)

Event Time Altitude Azimuth Distance (km) Brightness Sun altitude
Rises 15:41:38 0° 225° (SW) 7,174 12.4 1.8°
Reaches altitude 10° 15:46:47 10° 220° (SW) 6,203 12.0 0.5°
Maximum altitude 16:05:42 51° 148° (SSE) 3,333 10.0 -4.1°
Drops below altitude 10° 16:19:02 10° 76° (ENE) 4,552 10.4 -7.3°
Enters shadow 16:21:57 - 71° (ENE) 5,193 10.7 -8.0°
